Location: Unspecified
(0.0000°N, 0.0000°E)
Time: 17:43:57
(UTC+00:00)

Hubble Space Telescope - Pass Details

Date: 14 January 2021
Orbit: 536 x 539 km, 28.5° (Epoch: 24 January)

Event Time Altitude Azimuth Distance (km) Brightness Sun altitude
Exits shadow 05:27:10 12° 277° (W) 1,635 2.6 -9.8°
Maximum altitude 05:30:37 38° 210° (SSW) 813 1.6 -9.0°
Drops below altitude 10° 05:34:28 10° 141° (SE) 1,778 4.5 -8.1°
Sets 05:36:50 0° 132° (SE) 2,669 5.8 -7.5°
